sat.trackr.live / text

‹ back to catalog

STARLINK-36858

NORAD 68021 · 2026-040G

PAYLOAD ACTIVE UNKNOWN

§ Identity

Operator
Country
US
Launch date
2026-03-01
Launch site
AFWTR
Launch vehicle
Mass (kg)
RCS (m²)

Purposes: comms

External: N2YO · Heavens-Above · Gunter

§ Orbital elements

Epoch: 2026-09-20T02:14:38.546016Z

Period
93.91 min
Inclination
97.2855°
Eccentricity
0.0002064
Mean motion
15.33461555 rev/d
Perigee alt
464.1 km
Apogee alt
466.9 km
Semi-major
6,843.6 km
B*
7.8486e-4
RAAN
210.4098°
Arg perigee
96.7415°
Mean anomaly
263.4063°
Rev number
3,128

§ Raw data

STARLINK-368581 68021U 26040G   26263.09350169  .00025362  00000+0  78486-3 0  99942 68021  97.2855 210.4098 0002064  96.7415 263.4063 15.33461555 31289

JSON: /api/v1/satellites/68021 · /tle

For live sub-satellite position, see the globe view (requires WebGL).

§ Visibility from observer

Set your observer location to see the next 7 days of passes ≥ 10°. The values pass through the URL so the page stays shareable.

No JS? Fill the form by hand. The geolocation button needs JavaScript.